[[{"header":{"parameterUnit":"m.s-1","parameterCategory":1,"la1":30.2991,"la2":30.254,"lo1":-89.0895,"lo2":-89.0444,"dy":0.0017,"dx":0.0017,"nx":28,"ny":28,"refTime":"2025-04-26T09:00:00:Z","depth":0,"parameterNumber":2,"parameterNumberName":"U-component_of_WINDS"},"data":[0,0,0,0,0,0,0,0,0,0,0,0,0,0,0,0,0,0,0,0,0,0,0,0,0,0,0,0,0,0,0,0,0,0,0,0,0,0,0,0,0,0,0,0,0,0,0,0,0,0,0,0,0,0,0,0,0,0,0.3821,0.3822,0,0.3964,0.3965,0.3967,0.4022,0.4021,0.4021,0.4021,0.4167,0.4171,0.4175,0,0,0,0,0,0,0,0,0,0,0,0,0,0.3595,0.3599,0.3821,0.3823,0.3824,0.3963,0.3965,0.3967,0.4022,0.4021,0.4021,0.402,0.4166,0.4171,0.4176,0,0,0,0,0,0,0,0,0,0,0,0,0,0.3711,0.36,0.382,0.3868,0.3874,0.3963,0.3965,0.3968,0.4022,0.4021,0.4021,0.402,0.4164,0.417,0.4177,0.4228,0,0,0.4196,0.4199,0,0,0,0,0,0,0,0,0.3704,0.3719,0.386,0.3865,0.3872,0.3974,0.394,0.4055,0.4022,0.3966,0.4021,0.402,0.4103,0.4115,0.4143,0.4235,0.4242,0.4197,0.4201,0.4203,0.4205,0,0,0,0,0,0,0,0.3696,0.3713,0.3877,0.3861,0.3869,0.3883,0.3898,0.3962,0.4036,0.3971,0.3975,0.3991,0.4107,0.4137,0.4147,0.4244,0.4197,0.4202,0.4206,0.4209,0.4386,0.4387,0,0,0,0,0,0,0.368,0.3706,0.3873,0.3882,0.3785,0.3887,0.3905,0.3942,0.4036,0.4049,0.3991,0.3993,0.4126,0.4139,0.4152,0.4219,0.4203,0.4209,0.4213,0.4385,0.4386,0.4387,0,0,0,0,0,0,0.3675,0.3695,0.3867,0.3795,0.3818,0.3892,0.3933,0.3945,0.3975,0.4052,0.4065,0.4008,0.4126,0.4143,0.4209,0.4225,0.4212,0.4218,0.4384,0.4385,0.4386,0.4353,0,0,0,0,0,0,0.3669,0.3693,0.3713,0.3795,0.3822,0.3921,0.3934,0.3948,0.3986,0.399,0.4071,0.4084,0.4127,0.4199,0.4215,0.4234,0.4223,0.4383,0.4384,0.4386,0.4353,0.4353,0.4353,0,0,0,0,0,0.366,0.3698,0.3714,0.3734,0.3849,0.3922,0.3937,0.3986,0.3987,0.4008,0.4057,0.4081,0.422,0.4205,0.4224,0.4244,0.4382,0.4384,0.4386,0.4353,0.4353,0.4353,0,0,0,0,0,0,0.3616,0.371,0.3728,0.3794,0.3849,0.3931,0.396,0.3984,0.4041,0.4042,0.41,0.4118,0.4179,0.4218,0.42,0.43,0.4303,0.4309,0.4272,0.4272,0.4272,0.4261,0.4228,0,0,0,0,0,0.3613,0.3665,0.3744,0.3794,0.3822,0.3885,0.3919,0.3952,0.4012,0.4036,0.409,0.4147,0.4204,0.424,0.4297,0.4359,0.4377,0.4382,0.4382,0.4382,0.4386,0.4422,0.4425,0.4393,0.4393,0.4393,0,0,0.3609,0.3667,0.3696,0.3787,0.3834,0.3886,0.3905,0.3959,0.3999,0.4044,0.411,0.4151,0.4219,0.4283,0.4314,0.4318,0.4399,0.4384,0.4383,0.4388,0.4424,0.4427,0.4429,0.4394,0.4394,0.4394,0,0,0.3629,0.3678,0.3725,0.3771,0.3843,0.3885,0.3896,0.3974,0.4003,0.407,0.4105,0.4153,0.4249,0.4296,0.4333,0.4369,0.4393,0.4386,0.4386,0.442,0.4422,0.4425,0.4438,0.4442,0.439,0.439,0.439,0,0.3615,0.3695,0.3746,0.3798,0.3837,0.3881,0.3929,0.3971,0.4057,0.4083,0.4086,0.4208,0.4257,0.4332,0.4341,0.4369,0.4384,0.4377,0.4418,0.4421,0.4424,0.4437,0.4442,0.4388,0.4389,0.4389,0.4389,0,0.3674,0.3729,0.3759,0.384,0.3882,0.3932,0.399,0.4027,0.4056,0.4097,0.4164,0.4225,0.4294,0.4314,0.4343,0.4394,0.4394,0.4407,0.4411,0.4425,0.4438,0.4444,0.4387,0.4387,0.4387,0.4388,0,0,0.367,0.3779,0.3789,0.3826,0.3908,0.3951,0.4003,0.407,0.4101,0.4158,0.4203,0.4283,0.4295,0.4337,0.4371,0.4401,0.4426,0.441,0.4412,0.4411,0.4486,0.4476,0.4481,0.4442,0.4443,0.4444,0.448,0,0.37,0.3795,0.3842,0.3916,0.3967,0.4009,0.4054,0.4109,0.4149,0.4198,0.4243,0.4299,0.4311,0.4336,0.4367,0.4416,0.4442,0.4414,0.4485,0.4486,0.4466,0.4488,0.4478,0.4509,0.4486,0.4487,0.4487,0,0.3748,0.3805,0.3884,0.396,0.3983,0.4023,0.4088,0.4135,0.4198,0.4225,0.4271,0.4304,0.436,0.436,0.4438,0.4418,0.445,0.4478,0.448,0.4489,0.4488,0.4497,0.452,0.4524,0.4496,0.4495,0.4495,0,0.3737,0.3833,0.3894,0.3924,0.4014,0.4041,0.4079,0.4141,0.4179,0.4236,0.4261,0.4324,0.4358,0.4406,0.4456,0.4451,0.4529,0.4533,0.4553,0.4552,0.4568,0.4566,0.4596,0.4588,0.4587,0.4587,0.4587,0,0.3766,0.3812,0.389,0.3927,0.398,0.4034,0.4085,0.4127,0.4182,0.4228,0.4267,0.4309,0.4372,0.4422,0.446,0.4519,0.4534,0.4558,0.4568,0.4555,0.4551,0.4576,0.4575,0.4589,0.4588,0.4588,0.4588,0,0.3762,0.3816,0.3884,0.3963,0.3984,0.402,0.4088,0.4125,0.4167,0.4224,0.4241,0.4307,0.4367,0.4421,0.4501,0.4528,0.4587,0.46,0.4566,0.4572,0.4588,0.4586,0.4635,0.4645,0.4629,0.4629,0.4629,0,0.3777,0.3814,0.3897,0.3931,0.3969,0.4022,0.406,0.4114,0.4153,0.4227,0.4255,0.4318,0.4372,0.4467,0.4522,0.4584,0.4598,0.4611,0.4607,0.4593,0.4598,0.4595,0.4599,0.461,0.461,0.461,0.461,0,0.3798,0.3823,0.3877,0.394,0.3985,0.4038,0.4091,0.4116,0.418,0.4221,0.4284,0.4325,0.4407,0.447,0.4537,0.4577,0.4604,0.4611,0.4619,0.4606,0.4585,0.4596,0.4565,0.4609,0.4609,0.4609,0.4609,0.461,0.3805,0.384,0.3904,0.3963,0.4008,0.4058,0.4096,0.4143,0.4196,0.4267,0.4296,0.4359,0.4421,0.4514,0.4554,0.4604,0.4609,0.462,0.4623,0.4625,0.4623,0.4576,0.4616,0.4617,0.4617,0.4617,0.4617,0,0.3828,0.3871,0.3925,0.3999,0.4045,0.4066,0.4127,0.4164,0.4219,0.4274,0.4326,0.4398,0.4458,0.4518,0.4582,0.4611,0.4625,0.4626,0.4624,0.4633,0.4615,0.4602,0.4613,0.4613,0.4613,0.4613,0.4613,0.4613,0.3845,0.3906,0.3938,0.4021,0.4064,0.4126,0.4159,0.4204,0.4249,0.4327,0.4377,0.4416,0.4473,0.4541,0.4598,0.4614,0.4635,0.4633,0.4652,0.4634,0.4634,0.4634,0.4622,0.4637,0.4637,0.4666,0.4666,0.4666]},{"header":{"parameterUnit":"m.s-1","parameterCategory":1,"la1":30.2991,"la2":30.254,"lo1":-89.0895,"lo2":-89.0444,"dy":0.0017,"dx":0.0017,"nx":28,"ny":28,"refTime":"2025-04-26T09:00:00:Z","depth":0,"parameterNumber":3,"parameterNumberName":"V-component_of_WINDS"},"data":[0,0,0,0,0,0,0,0,0,0,0,0,0,0,0,0,0,0,0,0,0,0,0,0,0,0,0,0,0,0,0,0,0,0,0,0,0,0,0,0,0,0,0,0,0,0,0,0,0,0,0,0,0,0,0,0,0,0,3.0228,3.0228,0,3.0224,3.0224,3.0224,3.0209,3.0208,3.0208,3.0208,3.0204,3.0204,3.0204,0,0,0,0,0,0,0,0,0,0,0,0,0,3.0223,3.0223,3.0228,3.0228,3.0228,3.0224,3.0224,3.0224,3.0209,3.0208,3.0208,3.0207,3.0204,3.0204,3.0204,0,0,0,0,0,0,0,0,0,0,0,0,0,3.0223,3.0223,3.0228,3.022,3.0219,3.0224,3.0224,3.0224,3.0209,3.0208,3.0208,3.0207,3.0204,3.0204,3.0204,3.0217,0,0,3.0205,3.0205,0,0,0,0,0,0,0,0,3.0223,3.0223,3.0221,3.0221,3.022,3.0216,3.0221,3.0222,3.0209,3.0213,3.0208,3.0207,3.0208,3.0208,3.0209,3.0217,3.0216,3.0205,3.0205,3.0206,3.0206,0,0,0,0,0,0,0,3.0223,3.0223,3.0227,3.0221,3.022,3.0217,3.0216,3.0221,3.0214,3.0212,3.0211,3.0211,3.0208,3.0208,3.0208,3.0216,3.0205,3.0206,3.0206,3.0206,3.0234,3.0235,0,0,0,0,0,0,3.0224,3.0223,3.0227,3.0226,3.022,3.0217,3.0216,3.0218,3.0213,3.0212,3.0211,3.021,3.0208,3.0208,3.0208,3.0223,3.0206,3.0206,3.0206,3.0234,3.0234,3.0235,0,0,0,0,0,0,3.0224,3.0224,3.0227,3.0224,3.0224,3.0218,3.022,3.0218,3.0219,3.0213,3.0211,3.0213,3.0208,3.0208,3.0215,3.0222,3.0206,3.0206,3.0233,3.0234,3.0235,3.0252,0,0,0,0,0,0,3.0224,3.0224,3.0229,3.0225,3.0225,3.0233,3.022,3.0218,3.0219,3.0218,3.0214,3.0213,3.0207,3.0214,3.0215,3.0222,3.0207,3.0232,3.0233,3.0234,3.025,3.0253,3.0255,0,0,0,0,0,3.0224,3.0234,3.0229,3.023,3.023,3.0234,3.0234,3.0227,3.022,3.0225,3.0221,3.0213,3.0221,3.0215,3.0216,3.0223,3.0232,3.0233,3.0234,3.0249,3.0252,3.0255,0,0,0,0,0,0,3.024,3.0233,3.0228,3.0238,3.0236,3.0231,3.0237,3.023,3.0231,3.023,3.0221,3.0221,3.0229,3.0227,3.022,3.0235,3.0225,3.0227,3.0236,3.0239,3.0242,3.0242,3.0207,0,0,0,0,0,3.0245,3.0248,3.0242,3.0251,3.025,3.0244,3.0245,3.024,3.0238,3.0238,3.0234,3.0233,3.0236,3.0237,3.0239,3.025,3.0249,3.0255,3.0258,3.026,3.0261,3.0267,3.027,3.0239,3.0239,3.0239,0,0,3.0254,3.0251,3.0254,3.0254,3.0252,3.0256,3.0244,3.0248,3.0251,3.0238,3.0245,3.0242,3.024,3.0249,3.0253,3.0248,3.0269,3.0261,3.0263,3.0263,3.0268,3.0271,3.0274,3.024,3.024,3.024,0,0,3.0274,3.0272,3.0279,3.0277,3.0275,3.0271,3.0272,3.0268,3.0266,3.0272,3.0263,3.0266,3.027,3.0269,3.0269,3.0288,3.0281,3.0289,3.0302,3.0307,3.0309,3.0312,3.0318,3.0321,3.0291,3.0291,3.0291,0,3.0286,3.0291,3.0283,3.0288,3.0289,3.0278,3.0285,3.0284,3.0282,3.0283,3.0277,3.0282,3.028,3.0288,3.0293,3.0293,3.0295,3.029,3.031,3.0312,3.0314,3.032,3.0323,3.0292,3.0291,3.0291,3.0291,0,3.0307,3.031,3.0316,3.0315,3.0316,3.0322,3.0315,3.0317,3.0311,3.0308,3.0314,3.0311,3.0312,3.0314,3.0308,3.0321,3.0318,3.0311,3.0301,3.0318,3.0323,3.0326,3.0293,3.0293,3.0292,3.0292,0,0,3.0337,3.033,3.0333,3.0332,3.0329,3.0331,3.0337,3.0338,3.0339,3.0339,3.0343,3.0347,3.034,3.034,3.0335,3.034,3.0355,3.0332,3.0332,3.0336,3.0369,3.0374,3.0377,3.035,3.035,3.0351,3.0369,0,3.0355,3.0364,3.0357,3.0367,3.0371,3.036,3.0365,3.0363,3.036,3.0362,3.0358,3.0361,3.0352,3.0352,3.0356,3.0352,3.0361,3.0351,3.0354,3.0354,3.0355,3.038,3.0386,3.0403,3.0371,3.0372,3.0372,0,3.0378,3.0378,3.0389,3.0385,3.0386,3.039,3.039,3.0392,3.039,3.0387,3.0387,3.0381,3.0386,3.0375,3.0382,3.0375,3.0376,3.0375,3.0375,3.0375,3.0364,3.0381,3.0409,3.0411,3.0375,3.0375,3.0375,0,3.0399,3.0402,3.0409,3.0408,3.0403,3.0407,3.0405,3.0402,3.0403,3.0403,3.0403,3.0404,3.0405,3.0405,3.0399,3.0392,3.0407,3.0396,3.0404,3.0405,3.0408,3.0408,3.0436,3.0409,3.0409,3.0409,3.0409,0,3.0421,3.0428,3.0418,3.0422,3.0429,3.0421,3.0429,3.0426,3.0423,3.0427,3.0417,3.0421,3.0412,3.0415,3.041,3.0416,3.0416,3.0414,3.0413,3.0415,3.0415,3.0416,3.0414,3.0409,3.0409,3.0409,3.0409,0,3.0446,3.0439,3.0446,3.044,3.0439,3.0445,3.044,3.0444,3.044,3.0444,3.0445,3.0438,3.044,3.0434,3.0435,3.0432,3.0441,3.0438,3.0442,3.0441,3.045,3.0449,3.0479,3.0483,3.0453,3.0453,3.0454,0,3.046,3.0465,3.046,3.0462,3.046,3.0463,3.0463,3.0455,3.0457,3.0454,3.0458,3.046,3.0461,3.0465,3.046,3.0461,3.0458,3.0469,3.0458,3.046,3.0458,3.0458,3.0459,3.0471,3.0471,3.0472,3.0472,0,3.0486,3.0483,3.0484,3.0484,3.0485,3.0485,3.0484,3.0486,3.0478,3.0479,3.0481,3.0482,3.0483,3.0485,3.0485,3.0483,3.0476,3.0475,3.0477,3.048,3.0482,3.0481,3.0448,3.0474,3.0474,3.0474,3.0474,3.0474,3.0506,3.051,3.0507,3.0509,3.0508,3.0507,3.051,3.0506,3.0508,3.0508,3.0503,3.0506,3.0504,3.0503,3.0502,3.0504,3.0499,3.0502,3.0503,3.0504,3.0506,3.0481,3.0504,3.0504,3.0504,3.0504,3.0504,0,3.0532,3.053,3.0531,3.053,3.0532,3.0525,3.0523,3.0525,3.0528,3.0526,3.0527,3.053,3.0531,3.0526,3.0527,3.053,3.0527,3.0531,3.053,3.053,3.051,3.0508,3.0533,3.0533,3.0533,3.0533,3.0533,3.0533,3.0546,3.0552,3.0548,3.0554,3.0551,3.0554,3.0554,3.0553,3.0552,3.0555,3.0556,3.0553,3.055,3.055,3.0551,3.055,3.0551,3.0556,3.0553,3.0534,3.0532,3.0529,3.0527,3.0556,3.0556,3.0573,3.0573,3.0574]}]]